sat.trackr.live / text

‹ back to catalog

STARLINK-35048

NORAD 65286 · 2025-184P

PAYLOAD ACTIVE UNKNOWN

§ Identity

Operator
Country
US
Launch date
2025-08-22
Launch site
AFWTR
Launch vehicle
Mass (kg)
RCS (m²)

Purposes: comms

External: N2YO · Heavens-Above · Gunter

§ Orbital elements

Epoch: 2026-05-25T03:19:59.651040Z

Period
95.64 min
Inclination
97.4469°
Eccentricity
0.0002480
Mean motion
15.05660394 rev/d
Perigee alt
547.8 km
Apogee alt
551.2 km
Semi-major
6,927.6 km
B*
2.8186e-4
RAAN
197.6423°
Arg perigee
125.1385°
Mean anomaly
235.0075°
Rev number
4,275

§ Raw data

STARLINK-350481 65286U 25184P   26145.13888485  .00004012  00000+0  28186-3 0  99942 65286  97.4469 197.6423 0002480 125.1385 235.0075 15.05660394 42758

JSON: /api/v1/satellites/65286 · /tle

For live sub-satellite position, see the globe view (requires WebGL).

§ Visibility from observer

Set your observer location to see the next 7 days of passes ≥ 10°. The values pass through the URL so the page stays shareable.

No JS? Fill the form by hand. The geolocation button needs JavaScript.